Wind_Speed
20 21 22 23 24 26 26 26 24 23 22 22 22 21 20 19 19 19 19 20 20 20 19 18 18 17 16 15 15 14 14 13 12 12 11 10 10 11 12 14 14 15 16 18 18 19 19 19 19 19 20 19 19 19 18 18 18 17 17 17 17 17 16 17 18 17 16 18 19 16 14 17 18 17 18 17 18 20 21 22 22 24 26 26 26
17 20 21 22 22 24 26 27 27 27 26 25 24 24 23 22 21 20 20 20 20 21 20 20 20 19 18 17 17 17 16 16 16 15 14 13 12 11 12 12 13 15 16 18 18 19 19 18 18 19 20 20 20 19 18 18 18 18 17 17 17 17 17 17 17 18 16 16 19 18 16 18 19 17 18 19 19 19 20 20 21 22 24 25 24
15 18 20 20 20 21 23 24 26 27 28 29 28 26 25 25 23 22 21 20 20 21 22 21 21 22 21 20 19 19 18 17 18 18 17 16 15 14 13 12 13 13 15 16 16 17 19 19 19 19 20 20 20 19 19 19 19 18 17 17 17 17 17 17 17 18 18 16 16 16 15 17 19 17 16 18 19 20 20 20 20 20 20 22 23
16 17 19 18 17 19 21 22 24 25 27 30 32 31 28 27 26 24 22 21 21 21 22 23 22 23 24 23 21 20 20 19 19 19 18 18 17 17 15 14 14 13 13 13 14 15 17 18 17 18 19 20 20 20 20 20 19 17 16 16 17 16 16 18 18 17 18 17 16 15 14 16 18 17 16 17 18 20 21 21 21 21 21 21 22
15 16 17 18 17 17 19 19 20 22 24 27 31 33 31 30 29 26 24 22 22 22 21 23 24 24 25 25 23 22 21 20 20 20 20 19 18 18 18 17 16 15 14 14 14 15 16 17 15 15 17 18 19 19 19 18 17 16 16 16 17 17 17 18 19 19 20 20 20 18 17 17 18 19 19 18 19 19 19 20 20 21 21 21 22
10 10 12 15 15 17 19 19 17 19 21 23 27 29 31 31 31 30 27 24 24 23 22 22 23 24 25 25 25 24 23 22 21 21 21 21 20 19 19 19 18 17 17 16 17 17 18 18 17 17 18 19 19 18 17 17 17 17 17 17 17 18 19 20 20 20 21 23 22 20 20 21 22 24 23 21 20 20 20 19 19 19 20 21 22
7 7 9 12 14 16 19 17 15 16 18 20 24 27 29 30 30 30 28 26 25 24 23 23 23 24 25 25 26 25 24 24 24 23 22 22 23 22 21 20 20 20 20 19 19 19 20 20 20 20 20 21 21 20 19 19 19 19 19 19 19 20 21 22 21 22 25 26 25 23 22 23 24 27 27 24 23 24 22 20 20 19 19 20 21
7 8 9 11 12 14 15 12 10 13 15 17 19 22 25 27 28 29 27 26 27 26 24 24 23 23 24 25 26 26 25 26 26 26 25 24 25 26 24 23 23 23 23 22 21 22 22 21 21 21 22 22 22 22 22 21 22 22 21 21 22 22 23 24 24 26 26 25 26 26 25 25 26 27 29 29 28 29 27 25 23 21 19 18 19
9 10 10 10 9 10 11 10 9 11 13 15 15 16 19 21 25 26 25 26 29 29 27 25 24 23 23 24 25 26 27 28 28 27 27 26 26 27 28 27 26 26 26 26 25 26 25 25 24 23 23 22 22 22 22 22 23 24 23 23 24 24 24 25 27 27 26 26 26 28 30 30 29 28 30 33 34 34 32 27 23 22 20 19 19
9 9 10 10 9 10 10 9 10 11 12 13 13 14 15 16 19 22 23 26 30 31 31 29 27 25 24 24 24 25 27 28 29 31 32 30 28 27 29 30 30 29 28 28 28 28 28 28 28 27 25 24 23 23 23 23 23 23 23 23 24 25 25 27 28 28 29 31 30 29 30 32 33 32 32 34 35 36 35 28 23 21 20 20 21
7 7 8 9 9 10 11 10 10 10 11 11 11 12 13 15 17 19 21 24 27 29 30 30 30 29 27 26 25 26 27 27 29 32 32 31 30 29 31 33 33 32 31 30 30 30 30 30 30 30 29 27 27 26 25 25 25 25 25 25 25 26 27 29 29 26 27 32 34 32 32 33 32 32 31 29 28 32 34 30 25 24 22 21 21
6 7 7 8 8 9 10 10 11 11 11 11 10 11 12 14 16 18 20 22 23 24 25 27 30 31 29 28 28 28 28 28 30 31 28 27 28 30 33 34 35 35 35 33 32 31 30 30 31 31 32 31 30 29 29 29 29 28 28 28 28 29 29 30 31 29 27 30 31 31 34 36 34 32 30 27 26 30 32 31 29 27 25 25 24
7 7 7 7 8 9 9 10 10 10 11 12 11 11 11 12 14 16 17 18 19 21 22 23 26 27 27 28 30 31 31 30 32 33 31 28 27 28 30 33 35 36 36 36 35 33 31 31 31 33 33 33 34 34 34 33 33 32 32 32 32 33 32 33 34 34 33 32 30 29 29 31 31 33 33 30 30 33 34 31 29 29 28 29 30
6 6 6 6 7 8 8 9 10 10 11 11 11 11 11 11 12 13 14 14 15 17 18 20 22 23 22 24 27 29 30 30 32 34 35 33 30 30 31 32 34 36 36 36 36 36 35 34 34 35 35 34 34 36 37 37 36 36 35 36 37 37 36 36 36 36 35 34 35 34 31 29 29 31 33 33 33 34 34 31 29 29 30 30 30
6 4 4 5 6 6 7 7 9 9 10 11 11 11 11 11 12 12 13 13 13 13 14 16 18 19 19 21 23 22 23 26 27 29 31 31 29 29 31 32 34 35 36 36 37 37 37 37 38 39 38 36 34 35 38 38 38 37 37 38 39 38 39 40 41 40 37 36 36 35 33 32 30 29 30 32 33 33 33 31 28 28 29 28 28
9 7 6 6 6 6 6 6 7 7 8 8 9 10 10 10 11 11 11 11 10 11 12 13 15 15 16 17 18 18 18 20 21 21 23 23 23 25 27 30 32 34 35 35 35 35 35 36 37 38 37 37 36 36 37 36 36 36 36 36 36 35 36 38 40 40 38 37 35 33 31 30 29 29 31 33 34 33 31 30 28 28 28 27 27
11 10 8 7 6 6 6 6 6 7 6 6 7 9 9 9 9 9 10 10 10 10 11 12 13 14 15 15 17 18 18 17 17 18 18 18 19 21 22 24 27 30 33 34 34 34 34 34 36 36 35 35 35 35 36 36 35 34 34 35 35 32 33 34 34 34 36 35 32 30 29 29 29 30 31 32 33 31 29 29 29 27 25 25 24
13 12 11 10 8 7 6 6 7 7 7 7 8 8 8 9 9 9 8 9 9 9 9 10 12 13 14 15 17 18 18 17 17 18 19 19 19 19 18 19 22 25 28 30 30 30 31 32 33 34 34 35 35 34 34 34 33 32 32 33 33 32 33 32 30 32 34 33 30 28 28 29 30 29 28 27 28 29 28 28 27 24 22 21 19
15 14 14 12 11 10 8 7 7 7 7 7 8 8 8 9 9 9 8 8 9 9 8 9 11 12 12 12 12 12 13 13 14 17 18 18 18 19 18 18 20 22 25 27 27 27 28 29 30 31 32 33 33 32 31 30 30 30 29 31 32 31 31 29 28 30 33 33 31 29 28 29 28 27 26 25 25 26 26 25 23 21 18 15 13
15 14 14 13 12 11 11 9 8 8 8 8 7 8 8 8 9 9 9 8 9 8 8 8 8 9 10 10 9 10 11 12 13 16 16 17 19 20 19 20 21 21 23 25 25 26 26 25 26 29 30 29 27 26 25 26 26 26 26 27 29 30 29 27 28 31 32 31 30 28 26 26 25 23 22 22 21 21 22 21 19 18 15 13 12
14 14 15 15 15 15 14 12 10 9 9 9 9 9 9 8 8 9 9 8 9 8 8 8 8 8 9 10 11 12 13 14 14 16 16 16 18 20 21 23 24 23 24 25 25 26 26 26 26 28 28 27 25 23 24 27 29 29 27 26 26 26 27 29 31 32 30 28 26 23 21 20 19 18 17 16 15 14 15 14 12 11 10 10 12
14 15 17 18 19 19 19 18 16 14 14 14 14 14 14 14 13 13 13 12 11 10 10 9 8 8 8 10 10 11 12 13 13 14 15 15 18 21 24 27 27 25 25 25 26 28 28 27 28 29 28 28 27 26 29 32 32 31 29 27 26 25 25 28 30 27 23 20 16 14 12 10 10 10 9 7 6 5 5 4 4 5 7 10 13
13 16 19 20 21 21 21 21 21 20 20 20 20 19 19 18 16 15 14 13 13 13 13 13 13 14 16 17 17 15 13 14 14 13 12 12 10 10 14 18 21 24 25 25 25 29 31 31 32 32 32 32 31 30 30 29 27 27 27 25 24 21 19 20 20 16 12 10 7 4 4 3 3 3 2 2 2 2 1 1 1 4 7 9 11
13 15 19 21 21 21 22 21 21 21 21 20 19 19 19 19 18 17 16 15 14 14 15 16 17 17 18 20 22 22 22 22 23 23 23 23 23 21 19 16 14 12 12 13 12 14 17 18 19 18 17 17 17 16 15 14 12 12 11 8 9 8 5 5 5 4 6 6 6 6 7 8 9 9 9 8 7 6 4 3 3 4 5 7 9
14 16 18 20 20 20 21 21 21 21 21 21 21 20 19 18 17 16 16 16 15 14 14 15 16 16 17 19 20 20 20 20 20 21 22 23 23 23 23 23 24 23 21 17 16 15 13 11 10 10 10 10 10 10 9 9 10 10 11 9 4 4 10 13 13 15 16 16 15 13 13 13 12 11 11 10 8 6 5 4 3 3 5 7 8
16 16 17 18 18 19 20 20 20 22 22 21 21 21 22 21 18 16 16 16 15 15 14 13 13 13 14 15 15 16 18 20 21 21 21 22 22 22 22 22 21 21 21 21 20 20 19 19 18 17 17 16 15 15 15 14 14 15 15 14 11 12 14 14 13 14 14 14 14 13 12 11 10 10 9 8 6 4 3 2 2 3 4 5 5
16 16 15 15 16 17 18 18 18 20 22 21 20 19 21 23 23 20 18 16 15 15 15 15 14 14 13 13 13 14 19 23 24 24 23 23 23 23 23 23 22 20 19 18 17 16 14 14 14 14 14 13 13 13 13 12 12 12 12 13 14 15 15 14 15 16 15 14 13 13 12 10 9 8 7 6 4 4 3 2 3 3 3 3 4
16 15 15 14 14 14 15 15 15 15 18 21 22 22 20 20 23 24 23 19 17 16 14 14 15 14 14 14 13 14 18 22 24 24 24 24 23 23 23 24 24 24 22 21 19 17 14 13 13 14 13 13 14 14 14 14 14 14 14 15 16 17 17 16 15 14 12 11 10 9 8 7 6 6 6 5 4 3 3 3 3 3 3 3 3
14 14 13 13 13 12 12 13 12 12 12 14 18 22 22 20 20 21 22 22 20 18 16 15 14 13 13 14 14 13 14 16 17 17 18 18 18 18 19 20 21 21 21 20 20 19 18 17 17 17 17 17 17 17 17 17 16 16 16 15 15 14 12 10 8 7 7 6 5 5 4 5 5 5 4 4 3 3 3 3 3 4 3 3 3
11 12 12 12 12 11 11 11 11 11 11 10 10 13 17 20 20 20 19 19 19 19 18 17 17 15 14 14 14 14 13 14 14 13 13 13 13 13 14 15 15 16 16 15 16 16 16 15 15 15 15 15 14 13 12 12 11 10 9 9 8 7 6 5 5 4 4 3 4 4 4 4 4 4 3 3 4 4 4 4 4 4 3 3 4
10 10 11 11 12 11 10 10 10 9 10 10 9 8 9 12 16 18 18 17 17 17 17 17 17 17 15 14 15 15 14 13 13 13 13 12 11 11 10 11 12 12 11 12 12 12 11 11 12 11 10 10 10 9 8 7 6 6 6 6 6 6 5 4 4 4 3 3 4 4 4 3 2 2 2 3 4 4 4 4 3 2 3 3 4
9 9 9 10 11 10 9 9 9 8 8 8 9 9 8 8 10 13 15 16 15 15 15 14 14 14 14 14 15 15 14 13 12 13 13 12 11 11 11 11 11 10 9 9 10 9 8 8 9 9 8 9 9 8 8 8 7 7 7 7 6 6 5 4 4 4 4 3 2 3 2 2 2 2 3 3 2 1 1 2 1 1 2 2 3
7 8 9 9 9 9 9 8 8 7 7 7 7 8 9 9 8 8 10 12 13 13 13 13 12 12 12 13 13 13 12 12 12 12 12 12 11 12 13 13 14 13 12 11 10 9 9 10 10 9 9 10 9 9 9 9 8 8 8 7 6 5 5 4 3 3 3 3 3 2 2 2 2 2 3 3 3 1 0 1 0 1 2 2 3
6 7 9 8 7 8 8 8 7 6 6 6 6 6 7 8 8 8 7 7 8 10 10 11 12 11 11 11 12 12 12 11 11 10 11 11 11 11 11 11 13 15 14 11 10 9 9 9 9 9 9 8 8 8 8 8 7 7 7 6 6 5 5 4 3 3 3 3 2 2 2 2 2 2 2 2 2 1 1 1 1 1 2 2 3
6 7 9 9 7 6 7 7 7 6 6 5 5 5 5 5 6 6 6 6 6 6 7 8 10 12 12 11 11 11 11 11 10 9 8 8 9 10 9 8 9 11 11 9 9 9 9 9 8 8 8 8 8 8 8 7 7 7 6 6 6 5 5 4 3 2 2 2 2 2 3 3 2 2 2 2 2 2 2 2 2 2 2 3 4
6 6 7 8 7 7 7 7 6 6 6 6 5 5 5 4 4 4 4 5 5 5 5 5 7 10 13 13 12 11 11 11 11 9 8 7 8 10 9 8 8 8 8 8 8 8 8 8 8 7 7 7 7 7 7 7 7 7 7 7 6 5 5 4 2 1 0 1 1 1 1 1 2 2 2 2 2 2 2 1 1 2 2 3 4
6 6 7 8 8 9 9 8 7 8 8 8 6 6 5 5 4 4 4 4 4 5 5 5 6 7 10 12 13 12 11 11 11 11 10 10 9 9 9 8 9 9 8 8 8 8 8 8 8 8 8 8 7 7 7 7 7 7 7 7 6 5 5 5 3 2 1 1 0 1 1 1 1 1 2 2 2 1 1 2 2 2 3 5 5
6 8 10 11 11 11 10 9 10 10 9 8 7 7 6 6 5 5 4 3 3 4 5 5 5 6 7 9 11 11 10 10 10 10 10 10 10 9 9 9 8 8 9 8 8 9 9 9 9 9 9 9 9 8 8 8 8 8 8 8 7 6 6 6 4 2 2 3 4 3 4 4 4 3 3 3 3 2 2 3 3 3 4 6 5
7 10 13 15 15 13 11 10 10 10 9 8 8 8 7 6 6 5 4 4 4 4 5 5 5 5 7 8 10 11 10 9 8 9 9 9 9 9 9 9 9 9 9 9 9 9 10 10 10 10 10 10 10 10 10 10 10 10 10 9 9 8 8 7 6 6 6 6 6 6 6 6 6 6 5 5 4 4 4 5 4 4 5 6 6
8 10 13 16 16 14 10 8 8 8 8 8 7 7 6 6 5 5 5 5 5 4 5 5 4 5 7 8 9 10 10 9 8 9 9 9 10 10 9 9 10 10 10 10 10 10 10 11 11 11 11 11 11 11 12 12 12 12 12 12 11 11 11 11 11 11 10 10 10 10 9 9 9 8 8 8 8 8 7 7 7 7 7 7 6
8 9 11 15 15 11 7 5 4 4 4 5 5 4 4 5 5 4 4 5 5 5 6 5 4 5 8 10 9 10 10 9 8 9 9 10 10 10 10 10 10 10 10 11 11 11 11 11 12 12 12 12 12 12 12 12 13 13 13 13 14 14 14 14 14 13 13 13 13 13 12 12 12 12 12 12 11 11 11 11 11 10 9 9 9
10 8 9 11 11 7 3 2 2 2 1 2 2 3 3 3 3 4 4 5 5 6 7 6 6 7 10 12 12 12 11 9 9 10 10 10 11 11 11 11 10 10 11 11 11 11 11 12 12 12 12 12 13 13 13 13 13 13 13 14 14 14 15 16 16 17 16 16 16 16 16 16 15 15 15 15 16 15 15 15 15 14 13 13 12
11 9 9 9 8 4 2 2 1 1 1 1 2 2 2 3 3 4 4 5 6 7 8 8 8 8 11 14 15 14 11 9 10 11 11 11 11 11 11 10 10 10 11 11 11 11 12 12 12 12 13 12 13 14 15 15 15 15 14 14 13 13 14 13 14 15 16 16 17 18 19 20 21 20 19 18 19 19 19 19 19 19 18 17 16
12 9 8 9 7 4 3 2 2 2 2 3 2 2 3 3 4 5 6 7 7 8 9 9 9 9 11 12 12 11 10 10 11 11 11 11 11 10 10 9 10 11 11 10 10 12 13 12 12 13 13 13 14 16 18 19 19 19 18 17 16 16 15 14 13 14 15 16 18 18 19 20 23 25 25 25 24 24 23 22 22 22 22 21 20
13 10 8 7 6 5 4 3 3 3 3 3 3 3 4 4 4 5 6 6 7 8 9 9 9 9 10 10 10 10 10 10 10 10 10 10 9 9 8 8 9 10 9 9 10 12 13 12 12 13 13 13 14 16 17 18 19 21 21 20 19 19 18 18 19 20 20 19 19 19 19 19 20 22 23 24 24 24 24 25 25 25 25 24 24
13 12 10 8 7 7 6 5 5 4 4 4 4 3 3 3 3 4 5 6 7 8 8 8 9 9 9 9 10 10 10 10 10 10 9 9 8 7 7 8 9 9 8 9 11 12 13 13 13 14 14 14 14 15 15 14 15 17 18 19 20 20 21 21 22 22 21 19 18 17 17 18 19 19 21 22 22 23 23 24 24 24 25 26 26
15 13 12 10 9 8 7 6 6 5 4 4 3 2 3 3 4 4 5 7 8 8 7 8 8 8 9 9 9 9 10 10 10 10 9 8 7 7 8 9 9 9 10 10 11 11 13 15 15 15 15 16 16 15 14 14 14 14 16 18 19 19 19 19 19 19 18 18 18 17 16 16 16 17 17 19 20 20 21 23 23 23 23 23 24
17 15 14 12 11 10 8 7 7 6 5 4 3 3 3 4 5 5 5 6 7 7 7 8 8 8 9 9 9 9 10 10 10 9 9 8 9 9 9 10 11 12 12 11 11 12 15 17 17 17 17 16 16 15 15 14 15 16 18 19 19 18 18 18 18 18 18 18 18 17 16 15 14 14 15 17 19 20 21 22 22 22 21 21 22
18 16 15 14 12 11 10 8 8 6 5 4 4 4 4 5 6 6 6 6 7 7 8 8 8 9 9 9 9 9 10 10 10 10 10 10 11 11 10 11 12 13 12 12 12 13 15 17 19 19 17 16 15 15 15 16 17 18 18 19 19 18 18 19 19 19 19 18 16 15 14 14 14 14 14 15 16 17 17 17 18 20 20 19 18
19 18 16 15 13 12 11 10 9 7 6 5 4 4 5 6 6 7 7 7 8 8 8 8 9 9 9 9 9 10 10 10 11 11 12 13 12 12 12 13 13 13 13 13 13 14 15 16 18 19 18 17 16 15 14 17 19 19 18 18 18 18 18 18 18 18 18 16 14 12 12 13 13 12 13 14 14 14 14 15 17 18 17 15 14
19 19 17 15 14 13 11 10 9 8 6 6 5 5 6 6 6 7 7 8 8 8 8 9 9 9 9 9 10 10 11 12 13 13 14 13 13 13 13 13 13 14 14 14 13 13 14 16 17 18 18 17 16 14 15 19 21 19 18 18 18 18 18 18 17 17 17 16 13 10 10 11 11 10 11 12 13 11 11 13 14 13 12 12 12
Wind_Direction
255 258 256 253 251 252 253 255 256 255 252 249 248 246 240 238 239 240 241 239 239 242 241 237 237 238 241 247 250 253 260 264 264 264 265 268 267 266 265 263 261 258 254 252 250 248 246 246 246 246 246 245 244 246 246 247 248 247 248 253 258 261 262 261 260 262 265 268 271 268 258 257 261 262 262 259 257 268 279 281 279 279 283 286 287
261 262 261 256 254 253 252 255 258 258 255 253 252 252 247 242 240 239 239 240 240 241 241 240 240 239 238 241 245 248 253 259 263 261 261 263 263 262 264 263 262 261 257 255 254 253 251 249 249 250 250 248 247 248 248 248 250 252 254 256 259 262 264 264 262 263 264 265 270 274 266 263 267 264 260 263 262 261 264 269 274 277 279 280 279
266 263 261 260 259 258 256 256 258 258 258 258 257 256 253 248 245 242 239 239 240 241 241 241 241 241 240 240 242 245 248 253 259 261 258 259 261 260 260 260 260 258 258 258 257 256 256 254 252 253 254 254 253 250 249 250 250 251 254 257 258 259 261 263 263 263 264 263 263 268 265 264 273 273 260 258 264 263 260 259 262 264 264 268 270
266 265 268 270 269 267 263 260 259 256 256 258 259 257 256 253 250 246 241 239 241 242 242 241 240 241 242 241 241 243 246 249 255 259 257 255 257 258 258 258 257 255 256 256 252 251 255 257 256 255 257 258 257 254 252 252 253 251 249 251 256 259 260 263 266 267 267 266 264 263 258 256 266 273 265 255 256 260 261 259 258 259 258 257 261
273 274 278 278 276 273 267 261 260 258 253 254 257 258 257 256 254 251 246 242 242 242 242 242 241 241 242 243 242 242 245 247 250 254 255 253 253 254 255 255 256 256 255 254 250 246 248 254 256 255 256 257 257 256 254 253 254 255 253 251 255 261 264 266 269 272 273 273 273 272 266 260 261 267 267 260 254 255 258 260 259 258 258 256 256
285 280 278 275 273 273 271 270 270 266 257 252 254 255 255 255 254 254 250 245 243 243 243 245 245 243 243 243 243 243 244 246 247 249 251 252 251 250 250 253 255 257 257 256 256 253 252 254 256 254 255 256 257 257 256 256 257 258 261 261 258 259 265 270 272 274 275 276 277 277 274 272 274 278 278 270 261 258 256 258 260 258 258 257 257
282 284 281 279 278 277 278 282 280 270 261 255 252 250 251 252 253 251 249 246 244 243 244 246 247 247 245 244 244 244 245 246 247 248 249 251 252 252 252 254 256 259 259 258 258 258 257 258 259 259 258 257 258 258 257 258 260 260 262 266 266 262 264 271 274 274 275 275 275 275 274 273 275 279 282 277 270 268 263 257 257 257 256 256 256
295 299 296 294 294 287 284 287 283 273 269 267 261 254 251 252 252 250 247 244 244 244 244 247 249 250 248 246 244 244 244 245 246 249 250 251 253 256 256 258 260 262 263 261 259 260 260 260 261 262 261 259 259 259 259 259 261 264 264 265 268 267 267 271 272 272 271 268 269 274 274 271 270 273 278 277 274 273 272 268 265 260 253 251 254
310 305 301 302 301 289 283 289 294 290 284 279 275 268 261 257 256 253 248 245 245 245 244 245 248 251 251 250 248 245 245 247 247 248 249 250 254 258 260 261 263 265 265 265 263 263 263 263 263 263 263 262 261 261 263 262 262 264 266 268 270 270 271 271 271 271 267 260 265 276 277 274 272 270 273 277 278 278 278 272 264 260 255 252 254
310 299 293 290 283 272 267 273 286 294 293 289 284 278 271 267 263 260 256 252 250 249 249 248 247 247 249 251 250 248 248 249 249 250 251 253 256 260 261 263 264 265 266 266 266 266 265 264 265 267 266 264 264 263 263 263 262 263 265 268 271 273 274 273 272 271 269 268 274 279 275 273 276 276 274 278 281 279 276 269 257 253 255 257 262
309 300 292 286 280 273 266 263 267 277 284 289 290 286 280 276 272 268 264 261 258 255 255 254 252 249 248 250 251 251 251 250 251 255 257 257 256 257 261 264 265 265 265 265 265 266 266 265 265 267 267 266 265 265 264 263 264 265 265 266 268 271 273 274 274 270 270 275 279 278 274 275 280 279 274 273 271 268 270 271 263 255 253 256 261
320 312 302 294 288 281 273 268 267 268 268 271 276 281 283 281 278 276 271 268 265 262 258 257 256 254 251 249 249 250 251 251 254 260 263 260 257 257 259 262 264 265 265 264 264 264 264 266 266 266 267 267 267 267 267 266 265 265 266 267 268 270 271 272 273 270 269 275 277 275 277 279 281 281 275 267 258 257 267 275 269 258 252 250 253
336 327 316 308 295 284 278 276 276 274 269 266 263 263 266 268 272 277 277 273 267 264 262 260 257 256 254 253 252 252 253 254 258 265 268 266 264 261 259 260 262 264 265 265 264 263 262 263 265 266 267 269 271 271 270 270 270 270 270 271 271 272 272 272 273 272 272 272 270 269 272 275 278 282 279 270 261 260 270 276 270 259 252 249 254
336 317 308 305 294 286 283 279 277 276 273 269 264 262 263 261 263 270 275 274 269 267 266 262 257 256 258 259 259 258 258 257 259 264 268 269 267 265 263 263 263 263 265 265 265 265 265 264 265 265 266 268 270 272 273 275 277 277 277 277 275 274 273 272 271 271 272 272 270 271 272 273 276 279 278 274 270 270 273 274 268 261 255 252 253
347 332 326 321 309 300 295 286 281 277 273 270 269 270 269 268 267 268 269 271 273 274 272 267 265 265 264 264 267 266 263 262 262 264 269 270 268 265 263 263 264 264 264 264 265 266 266 266 266 266 267 267 266 269 273 277 279 281 281 281 280 279 277 275 272 270 270 270 271 275 277 275 275 275 273 272 273 272 271 270 266 260 255 251 250
4 2 354 342 332 322 313 302 290 283 278 275 274 275 277 277 277 278 278 277 277 279 278 275 273 270 263 262 266 267 265 266 266 269 274 273 269 266 262 260 262 263 263 264 265 265 265 265 266 267 267 267 268 269 272 275 277 279 279 279 279 278 277 278 277 276 274 271 270 273 275 275 274 271 267 267 270 271 269 267 263 257 252 249 250
11 10 5 356 348 340 334 324 307 295 291 287 280 274 274 276 278 283 288 289 293 298 296 286 280 274 265 260 264 268 268 269 269 274 280 278 273 274 271 264 262 262 263 264 264 264 264 264 265 266 266 267 269 271 274 276 276 276 276 276 275 273 272 274 275 277 277 276 273 273 274 275 272 267 265 265 268 269 267 263 261 258 252 249 254
16 13 11 9 4 355 350 340 326 316 310 306 302 293 289 289 290 292 294 297 306 314 310 296 291 289 280 269 267 269 269 268 268 268 272 271 269 273 275 269 263 262 262 263 263 264 264 263 264 265 265 265 268 271 274 276 276 275 275 275 274 271 270 272 272 272 274 274 274 276 276 274 269 266 265 265 264 264 263 262 261 259 254 254 259
26 21 18 16 14 11 8 1 357 353 343 331 323 318 315 314 316 320 322 319 321 325 314 296 293 297 295 283 275 276 277 276 273 269 266 263 262 267 270 268 265 262 261 263 264 263 264 265 266 267 267 267 269 271 273 274 275 275 275 275 273 271 271 272 270 267 268 269 271 275 276 271 267 265 267 267 264 263 263 260 257 253 249 249 250
33 30 27 25 25 25 22 17 16 15 8 355 342 335 329 321 318 321 321 317 320 318 309 302 301 303 302 295 289 291 292 288 283 279 273 263 256 259 265 266 264 262 262 264 266 267 267 268 268 267 267 269 270 270 271 272 272 273 273 271 271 271 271 269 266 264 266 270 274 274 269 264 262 262 263 264 262 259 258 256 252 247 243 242 244
35 35 38 41 44 44 42 40 35 27 22 16 11 10 9 3 358 355 348 339 330 320 313 313 309 301 296 295 296 299 297 295 292 289 287 274 259 258 264 268 270 268 264 263 264 266 267 266 265 265 265 266 266 263 263 265 268 270 270 267 269 274 273 271 269 267 268 272 272 267 261 259 259 256 256 260 262 258 256 256 253 247 245 249 258
39 44 49 51 52 52 51 52 53 51 49 47 45 44 43 41 40 38 33 25 19 15 13 5 354 347 344 338 333 327 318 315 310 302 298 287 270 262 262 265 268 270 269 267 266 266 268 267 267 267 267 266 265 264 265 268 272 278 278 270 267 271 273 273 271 268 268 272 273 269 267 265 261 259 260 268 277 275 265 258 245 242 252 259 263
43 51 55 55 55 55 54 53 55 56 56 55 53 52 52 51 49 48 47 46 46 47 46 46 45 43 41 41 42 42 38 34 32 26 14 2 340 308 288 278 274 272 272 271 269 269 271 272 273 272 270 269 271 274 276 279 283 288 286 277 271 274 279 281 278 271 269 279 290 298 313 329 332 338 3 38 51 51 38 354 289 277 277 278 279
44 51 57 57 56 55 55 53 53 54 55 55 54 53 54 54 52 49 50 51 53 56 57 59 60 59 59 62 63 63 62 58 54 49 42 35 32 30 25 18 7 343 312 295 285 279 279 281 283 282 279 279 285 291 294 302 310 309 304 290 280 291 326 340 343 39 63 60 59 60 56 55 56 60 65 68 66 61 51 32 1 324 307 299 295
51 53 56 56 56 55 55 54 56 58 58 56 55 54 54 55 51 46 47 50 52 55 57 59 60 60 62 65 64 59 54 48 42 38 35 31 31 32 33 33 34 34 34 37 42 44 45 48 48 53 58 58 56 53 45 41 50 65 78 84 91 88 82 78 75 74 76 78 78 75 71 72 74 75 75 73 69 63 50 33 357 316 299 290 284
55 54 53 51 51 53 55 54 56 61 61 56 55 54 53 55 56 50 47 48 50 53 54 52 52 53 53 53 49 43 38 36 35 36 36 37 37 37 35 33 32 34 37 43 47 51 55 58 59 59 59 59 57 55 54 59 71 83 84 80 81 90 92 90 88 87 87 90 90 89 88 86 83 80 77 75 74 66 50 22 338 311 295 289 292
53 51 50 48 46 48 52 53 52 55 57 56 55 53 51 52 56 57 55 52 51 51 51 51 51 51 49 46 41 39 43 46 47 48 47 46 46 45 44 45 45 44 43 42 41 43 44 43 43 44 44 43 42 43 49 57 66 70 69 69 74 81 84 83 83 84 87 90 92 93 94 90 85 82 80 78 76 68 55 31 6 344 320 322 339
51 48 46 46 44 41 44 47 46 46 50 53 55 55 54 51 51 53 55 56 54 51 49 50 51 48 47 47 46 45 48 51 52 53 51 50 50 50 52 53 53 54 53 51 48 46 45 43 43 45 46 49 54 59 62 64 66 66 68 71 74 75 75 75 76 76 80 85 86 88 93 93 91 90 85 78 66 50 32 12 352 328 317 334 356
45 44 41 41 42 39 36 39 40 39 41 46 49 51 52 52 51 49 49 51 54 54 52 52 54 52 46 46 47 44 41 42 44 45 45 44 42 43 44 46 48 49 51 52 53 53 54 57 59 60 61 63 66 68 68 68 69 70 71 73 74 74 73 75 78 79 82 86 85 86 94 94 89 83 73 56 37 18 358 339 319 302 302 315 315
39 40 38 38 39 38 34 32 33 34 35 36 38 38 39 43 45 46 46 46 49 52 53 54 56 56 51 47 48 46 41 38 37 37 36 34 31 29 28 28 31 33 34 37 41 41 42 45 47 49 52 54 54 56 57 57 58 58 60 61 62 61 61 68 79 80 80 83 85 84 87 87 77 64 42 16 359 345 334 325 308 287 283 288 290
35 35 33 33 34 32 29 27 28 30 30 31 34 31 25 25 30 35 41 45 47 50 53 53 53 55 53 49 47 46 43 42 43 43 42 41 37 34 30 25 23 24 24 28 31 31 32 34 35 34 36 38 40 40 40 43 44 41 39 40 40 37 35 39 43 37 33 48 64 67 71 74 58 35 12 353 344 335 332 333 319 280 273 282 290
31 28 24 23 25 24 22 22 23 25 27 28 31 34 30 21 15 19 29 39 45 49 52 52 49 48 49 48 44 42 40 41 44 48 49 49 48 47 46 42 36 32 35 40 38 34 34 37 37 35 34 37 37 35 33 33 31 25 22 24 26 25 21 22 25 15 6 21 52 59 56 42 13 360 355 358 7 354 317 328 308 270 276 283 289
21 21 18 16 17 17 17 16 14 17 22 24 23 26 28 26 22 16 19 28 38 43 47 50 49 46 45 44 43 41 39 39 43 47 48 49 51 50 49 47 42 38 40 44 41 37 39 41 39 38 38 37 35 32 30 28 26 22 20 18 15 10 6 9 13 8 11 34 56 58 46 27 15 15 15 31 56 81 60 33 32 279 304 307 298
1 359 1 4 6 7 9 12 10 7 8 12 14 16 17 19 23 25 22 23 31 35 37 40 40 38 38 38 38 38 37 36 39 45 47 47 46 44 43 42 38 36 38 39 35 32 35 36 34 35 35 33 31 29 28 27 25 22 22 23 21 12 5 9 25 47 57 63 66 64 56 50 53 55 49 48 59 64 52 48 21 332 336 335 323
342 339 345 350 350 347 348 354 359 359 355 348 347 354 360 3 9 18 25 27 28 31 35 34 28 24 26 30 31 31 31 29 30 34 40 40 35 31 29 24 22 26 28 25 22 24 25 23 24 25 24 22 22 21 19 19 21 21 21 25 26 24 23 33 60 83 86 86 85 83 78 76 71 64 56 54 53 47 43 38 18 6 353 331 325
334 330 333 336 333 326 324 324 328 334 335 329 319 319 327 337 343 352 9 20 20 20 29 29 17 15 21 25 26 25 24 22 20 19 21 21 21 20 14 2 359 5 7 4 5 7 5 5 6 5 4 3 1 0 1 1 2 5 8 8 8 15 21 25 31 38 80 115 105 92 82 75 63 49 43 43 41 34 30 15 10 22 9 343 333
325 322 320 319 315 310 307 303 299 303 310 312 308 302 302 308 317 321 333 357 6 6 12 17 12 10 14 17 17 16 14 13 15 16 14 13 14 15 10 360 354 353 351 349 348 344 343 344 343 340 341 342 339 337 339 337 335 338 341 341 342 347 349 348 349 350 315 287 320 344 331 332 345 346 350 349 339 343 359 349 322 316 338 351 353
311 313 316 318 313 305 296 288 287 293 299 297 294 298 297 292 293 298 304 321 337 344 353 2 5 5 4 5 6 4 359 1 9 13 11 9 9 8 5 1 357 353 349 345 341 335 331 329 326 323 322 321 320 320 319 317 317 315 313 313 314 315 316 320 323 317 299 294 294 299 301 299 298 301 306 311 312 314 321 325 321 313 317 330 340
307 311 317 321 320 312 301 286 279 284 289 286 285 290 290 283 285 286 285 294 314 328 335 338 347 355 352 348 352 356 354 351 355 358 358 358 358 356 354 352 350 348 344 341 338 335 331 329 327 323 319 316 314 311 306 304 304 302 299 297 296 295 292 289 285 286 287 285 285 288 289 287 286 287 286 284 286 291 295 299 306 311 311 312 316
304 310 315 320 323 319 310 294 278 276 284 286 285 285 281 278 282 283 284 294 304 309 317 323 328 329 325 324 334 346 348 343 341 344 345 345 345 345 344 341 339 337 334 332 330 328 326 324 323 322 320 318 317 315 311 308 304 300 295 291 287 285 283 281 280 280 278 277 277 279 279 278 276 275 276 279 280 282 284 283 282 285 291 296 299
296 306 312 319 324 325 317 296 277 275 287 291 286 283 281 280 280 278 282 294 300 301 309 313 303 301 311 318 326 334 336 331 327 329 332 332 331 332 332 330 329 329 327 326 324 323 321 320 319 317 316 316 317 316 315 313 309 305 301 295 289 283 280 279 278 276 274 274 273 271 271 273 272 269 269 271 273 274 276 276 276 276 277 279 283
285 296 307 315 320 322 306 281 279 285 306 312 307 302 292 284 283 285 287 294 300 303 306 306 300 298 305 313 321 327 327 320 316 319 322 321 321 322 322 320 321 322 322 321 320 318 317 316 315 313 312 314 315 313 311 311 311 308 306 305 301 293 287 282 278 276 275 273 270 268 267 266 265 264 265 266 267 269 271 270 271 273 273 274 277
277 285 295 305 309 302 268 260 262 248 271 297 304 310 309 299 293 294 295 296 300 305 305 303 303 303 304 311 321 328 324 312 309 312 314 314 314 316 316 315 315 317 318 318 316 314 313 314 313 310 309 310 309 304 300 301 303 302 302 306 306 301 299 296 290 284 279 274 270 268 267 265 265 265 265 265 264 265 267 267 267 268 269 270 273
267 269 279 292 295 282 253 239 224 231 283 308 305 297 303 302 295 297 303 303 304 307 307 304 304 305 306 310 317 322 317 311 311 312 312 312 314 314 313 313 314 315 317 318 315 312 312 314 311 307 305 305 303 298 295 295 294 292 294 297 297 296 297 299 296 291 286 281 277 274 272 272 272 271 270 269 268 266 265 264 263 264 264 264 266
255 248 250 259 258 242 232 228 229 247 281 299 289 278 291 300 302 306 312 312 311 312 311 308 307 309 310 310 312 313 313 314 314 313 312 312 313 314 313 314 317 320 322 320 316 314 315 316 314 311 309 308 304 301 299 297 294 291 290 291 291 291 291 290 288 287 288 288 289 287 285 284 283 280 277 275 272 270 267 264 262 263 262 259 259
239 235 234 232 228 225 226 230 237 249 264 271 272 279 292 308 316 316 318 323 327 326 321 316 314 314 314 316 317 317 317 318 318 316 314 313 313 313 312 313 318 323 321 317 317 318 317 316 315 314 312 310 307 304 304 303 301 298 295 291 289 288 288 288 288 289 291 292 293 292 291 289 288 286 284 282 280 277 275 271 267 264 261 258 258
231 230 228 225 224 223 220 224 233 240 246 252 264 279 293 307 320 323 319 326 335 336 328 322 322 321 319 320 321 320 319 320 318 316 314 313 311 310 310 313 317 320 318 315 315 315 314 314 315 312 310 308 308 305 301 299 297 295 292 289 288 288 290 290 290 291 293 292 292 294 294 294 292 290 288 286 284 283 283 282 278 273 267 259 255
228 229 225 220 221 221 217 218 227 233 231 235 252 277 296 310 320 322 318 323 329 330 326 323 323 322 321 321 321 321 320 320 318 316 314 310 308 308 309 309 311 314 315 314 311 309 310 312 313 312 309 307 304 300 295 291 287 284 283 283 284 286 287 288 289 290 291 291 293 296 297 298 297 295 292 289 287 285 284 284 284 281 275 264 254
225 227 223 216 215 215 214 215 220 223 224 231 251 277 291 302 310 312 313 318 321 321 320 320 319 320 321 319 318 319 319 317 315 315 312 309 308 307 305 305 309 311 313 312 309 308 310 313 314 314 312 307 301 296 291 285 281 279 279 280 282 283 284 286 288 290 291 293 298 301 300 298 297 296 295 293 292 291 289 284 280 280 278 270 258
224 223 219 215 213 210 210 215 219 221 227 235 247 267 281 295 304 306 305 309 313 314 315 314 313 315 317 315 314 316 315 314 314 313 310 308 308 304 301 303 306 306 306 307 306 305 308 312 314 315 313 307 301 295 287 282 280 280 281 283 285 285 286 288 289 291 293 295 300 303 302 300 300 300 298 294 292 291 291 286 282 281 279 272 260
222 220 213 210 210 207 208 215 219 220 228 240 249 263 276 285 294 298 299 303 308 309 309 310 310 311 312 311 311 311 309 307 307 308 307 306 305 301 300 302 302 301 304 306 304 300 303 306 309 311 311 307 300 289 281 280 282 282 283 286 288 289 290 291 292 293 294 297 300 305 306 306 305 305 304 300 294 293 297 296 292 287 281 272 263
Height
1512 1512 1513 1515 1517 1517 1518 1518 1518 1520 1520 1521 1521 1522 1523 1523 1524 1525 1525 1525 1526 1526 1526 1527 1527 1528 1528 1528 1527 1527 1527 1527 1527 1527 1527 1527 1526 1526 1526 1526 1526 1526 1526 1527 1527 1527 1528 1528 1528 1528 1528 1528 1528 1528 1528 1528 1528 1527 1528 1527 1527 1527 1528 1528 1527 1527 1526 1525 1524 1525 1524 1523 1522 1522 1521 1521 1520 1518 1517 1517 1516 1515 1514 1513 1512
1509 1510 1510 1512 1514 1513 1514 1514 1515 1517 1518 1518 1518 1519 1520 1520 1521 1522 1522 1523 1523 1524 1524 1525 1525 1525 1526 1526 1526 1526 1525 1525 1525 1525 1525 1525 1525 1525 1525 1524 1524 1524 1524 1525 1525 1525 1526 1526 1526 1526 1526 1526 1526 1526 1526 1526 1526 1525 1525 1525 1525 1525 1525 1525 1524 1524 1524 1523 1522 1521 1521 1520 1519 1519 1518 1517 1517 1516 1515 1514 1513 1512 1512 1511 1510
1506 1506 1506 1508 1509 1509 1510 1511 1513 1514 1515 1515 1516 1516 1517 1517 1518 1519 1519 1520 1521 1521 1522 1522 1523 1523 1523 1523 1524 1524 1524 1523 1523 1523 1523 1524 1523 1523 1523 1523 1523 1523 1523 1523 1523 1523 1523 1524 1524 1524 1524 1524 1524 1525 1524 1524 1524 1524 1523 1523 1523 1523 1522 1522 1522 1521 1521 1521 1520 1519 1519 1518 1517 1517 1517 1515 1514 1514 1513 1512 1511 1510 1510 1508 1507
1503 1503 1504 1505 1506 1507 1509 1510 1512 1513 1513 1512 1512 1512 1513 1515 1515 1516 1517 1518 1518 1518 1519 1519 1520 1520 1520 1520 1521 1521 1521 1521 1521 1521 1521 1522 1522 1521 1521 1521 1521 1521 1521 1521 1521 1521 1521 1521 1522 1522 1522 1522 1522 1522 1522 1522 1522 1522 1522 1521 1521 1520 1520 1519 1519 1518 1518 1517 1517 1517 1517 1516 1514 1514 1514 1514 1512 1511 1510 1510 1509 1508 1508 1506 1505
1501 1502 1502 1503 1503 1504 1505 1506 1506 1506 1507 1507 1507 1508 1510 1511 1513 1514 1515 1515 1516 1516 1516 1516 1517 1517 1517 1517 1518 1518 1518 1519 1518 1518 1519 1519 1519 1519 1519 1519 1519 1519 1519 1519 1519 1519 1519 1519 1519 1519 1519 1519 1519 1519 1520 1520 1520 1519 1519 1519 1518 1518 1517 1517 1516 1515 1515 1514 1514 1514 1514 1513 1512 1511 1511 1511 1510 1509 1508 1507 1506 1505 1505 1504 1502
1500 1500 1500 1500 1500 1500 1500 1500 1500 1501 1502 1503 1504 1505 1506 1508 1509 1510 1511 1512 1513 1513 1514 1514 1514 1514 1514 1514 1515 1515 1516 1516 1516 1516 1516 1516 1516 1516 1517 1517 1517 1517 1517 1517 1517 1517 1517 1517 1517 1517 1517 1516 1517 1517 1517 1517 1517 1517 1516 1516 1516 1516 1514 1514 1513 1512 1512 1511 1511 1511 1511 1510 1509 1508 1508 1507 1506 1506 1505 1504 1503 1503 1502 1500 1499
1498 1497 1497 1497 1498 1498 1497 1497 1498 1498 1499 1499 1500 1501 1502 1504 1505 1506 1508 1509 1509 1510 1510 1510 1511 1511 1511 1512 1512 1513 1513 1513 1513 1513 1513 1513 1513 1513 1514 1514 1514 1514 1514 1514 1514 1514 1514 1514 1514 1514 1514 1514 1514 1514 1514 1515 1514 1514 1514 1513 1513 1513 1512 1511 1511 1510 1509 1508 1507 1508 1508 1507 1506 1504 1504 1504 1502 1501 1501 1501 1500 1499 1499 1497 1495
1496 1495 1495 1496 1496 1496 1495 1495 1495 1495 1496 1497 1497 1498 1499 1500 1500 1502 1503 1505 1505 1506 1507 1507 1507 1507 1508 1508 1509 1509 1510 1510 1510 1510 1510 1510 1510 1510 1510 1511 1511 1511 1511 1511 1511 1511 1511 1511 1511 1511 1511 1511 1511 1511 1511 1511 1511 1511 1511 1511 1510 1510 1509 1508 1508 1507 1506 1505 1504 1504 1504 1503 1502 1501 1500 1500 1499 1497 1496 1496 1495 1495 1496 1495 1493
1494 1494 1494 1494 1494 1494 1493 1493 1493 1493 1493 1494 1494 1495 1496 1496 1496 1497 1499 1499 1500 1502 1503 1504 1504 1504 1504 1505 1505 1506 1506 1506 1507 1507 1507 1507 1507 1508 1507 1508 1508 1508 1508 1508 1508 1508 1508 1508 1507 1507 1507 1508 1508 1508 1508 1508 1508 1508 1507 1507 1507 1506 1506 1505 1504 1504 1503 1502 1501 1501 1501 1499 1498 1498 1496 1495 1494 1493 1493 1492 1490 1490 1491 1491 1490
1494 1494 1494 1494 1494 1494 1493 1492 1491 1491 1491 1491 1492 1492 1493 1493 1493 1493 1494 1495 1496 1497 1498 1499 1500 1501 1501 1502 1502 1503 1503 1503 1503 1503 1504 1504 1505 1505 1505 1505 1505 1505 1505 1505 1505 1505 1504 1504 1504 1504 1504 1504 1504 1504 1504 1504 1504 1504 1504 1504 1504 1503 1502 1501 1500 1500 1499 1498 1497 1497 1496 1494 1494 1493 1492 1490 1489 1489 1488 1488 1487 1487 1487 1486 1485
1494 1494 1494 1493 1493 1493 1492 1492 1491 1490 1489 1489 1489 1489 1490 1490 1490 1490 1490 1491 1491 1493 1494 1495 1496 1497 1498 1498 1499 1499 1499 1499 1499 1499 1500 1500 1502 1502 1502 1501 1501 1501 1501 1501 1501 1501 1501 1501 1500 1500 1500 1500 1500 1500 1500 1500 1500 1500 1500 1500 1500 1500 1499 1498 1496 1496 1495 1493 1493 1493 1491 1489 1489 1489 1488 1488 1487 1485 1484 1485 1485 1484 1483 1482 1481
1494 1494 1493 1492 1492 1491 1491 1490 1490 1490 1489 1488 1488 1487 1487 1487 1487 1487 1488 1487 1488 1489 1490 1491 1491 1492 1494 1494 1495 1495 1495 1495 1495 1495 1496 1497 1498 1498 1498 1498 1497 1497 1497 1497 1497 1497 1497 1497 1497 1496 1496 1495 1495 1496 1495 1495 1496 1496 1496 1496 1496 1495 1495 1494 1493 1492 1491 1490 1488 1488 1486 1484 1484 1484 1484 1484 1483 1481 1480 1480 1480 1479 1479 1478 1477
1494 1493 1492 1492 1491 1490 1490 1489 1488 1488 1488 1487 1487 1486 1485 1485 1485 1485 1485 1485 1485 1486 1486 1487 1487 1488 1489 1489 1490 1490 1491 1492 1492 1492 1492 1493 1494 1494 1494 1494 1493 1493 1493 1493 1493 1493 1494 1494 1493 1492 1492 1491 1491 1490 1490 1490 1490 1491 1491 1491 1490 1490 1490 1489 1488 1487 1486 1485 1484 1483 1482 1480 1480 1479 1479 1478 1478 1476 1475 1476 1475 1474 1474 1472 1472
1493 1492 1491 1491 1490 1489 1488 1488 1487 1487 1486 1486 1485 1484 1484 1483 1483 1483 1482 1482 1482 1482 1482 1482 1482 1483 1484 1485 1485 1486 1486 1487 1488 1488 1488 1489 1490 1490 1490 1490 1489 1489 1489 1489 1489 1489 1489 1489 1489 1488 1488 1488 1487 1486 1485 1486 1486 1486 1485 1484 1483 1483 1483 1483 1482 1481 1481 1480 1478 1477 1477 1476 1476 1475 1474 1472 1472 1472 1471 1472 1471 1469 1469 1468 1468
1491 1490 1490 1489 1488 1488 1487 1486 1486 1485 1484 1484 1483 1483 1482 1481 1481 1481 1480 1480 1479 1478 1478 1478 1479 1480 1480 1481 1481 1481 1482 1482 1483 1484 1484 1485 1485 1485 1485 1485 1485 1484 1484 1484 1484 1484 1484 1484 1483 1483 1483 1483 1483 1482 1482 1482 1482 1481 1480 1478 1477 1476 1476 1475 1474 1475 1475 1474 1472 1472 1472 1471 1471 1470 1469 1467 1467 1467 1467 1467 1467 1465 1464 1464 1464
1490 1489 1489 1488 1487 1487 1486 1485 1484 1484 1483 1482 1482 1481 1481 1480 1480 1479 1479 1478 1477 1476 1476 1476 1476 1476 1477 1477 1478 1477 1478 1478 1479 1480 1480 1480 1480 1480 1479 1479 1479 1479 1479 1479 1479 1479 1479 1479 1478 1478 1478 1478 1478 1478 1478 1478 1478 1477 1475 1474 1472 1471 1470 1468 1467 1467 1468 1468 1467 1467 1466 1466 1466 1465 1463 1462 1461 1462 1461 1461 1462 1461 1460 1460 1460
1489 1489 1488 1487 1486 1486 1485 1484 1483 1482 1482 1481 1480 1479 1479 1478 1478 1477 1477 1476 1475 1475 1475 1474 1474 1473 1473 1474 1473 1473 1474 1475 1475 1476 1476 1476 1475 1475 1475 1475 1474 1474 1474 1474 1474 1474 1474 1474 1473 1473 1473 1473 1473 1473 1473 1473 1473 1472 1470 1469 1468 1467 1466 1465 1464 1462 1462 1462 1462 1461 1461 1461 1460 1459 1458 1457 1456 1456 1456 1456 1457 1457 1456 1457 1458
1489 1488 1487 1487 1486 1485 1484 1483 1483 1482 1481 1480 1479 1478 1478 1477 1477 1476 1475 1475 1475 1474 1473 1473 1472 1472 1471 1471 1470 1469 1470 1471 1472 1472 1471 1471 1471 1470 1470 1470 1469 1469 1469 1469 1469 1469 1469 1468 1468 1468 1468 1468 1468 1469 1469 1468 1467 1466 1465 1464 1463 1462 1461 1461 1461 1459 1457 1457 1457 1456 1456 1455 1454 1453 1453 1453 1452 1452 1452 1452 1453 1454 1454 1455 1456
1490 1489 1488 1487 1485 1484 1483 1482 1481 1481 1480 1480 1479 1478 1477 1477 1476 1475 1474 1474 1473 1473 1472 1471 1471 1471 1470 1469 1469 1468 1468 1468 1468 1468 1467 1468 1467 1466 1466 1466 1465 1465 1465 1465 1465 1465 1464 1464 1464 1463 1463 1463 1463 1464 1464 1462 1461 1461 1460 1459 1457 1457 1457 1458 1457 1454 1453 1452 1452 1451 1451 1450 1449 1449 1449 1449 1449 1448 1448 1449 1450 1451 1452 1454 1455
1491 1490 1489 1487 1485 1484 1482 1481 1481 1480 1479 1479 1478 1477 1476 1476 1475 1474 1473 1473 1472 1471 1471 1470 1470 1469 1468 1467 1467 1466 1465 1465 1464 1464 1463 1463 1463 1462 1462 1461 1461 1462 1462 1462 1462 1461 1461 1461 1460 1458 1457 1457 1457 1458 1457 1456 1455 1455 1455 1454 1452 1452 1453 1453 1452 1450 1449 1448 1447 1446 1446 1445 1445 1445 1445 1445 1445 1445 1445 1446 1448 1449 1451 1452 1453
1493 1491 1490 1488 1486 1484 1482 1481 1480 1479 1479 1478 1477 1476 1475 1474 1473 1473 1472 1472 1471 1470 1470 1469 1468 1467 1466 1465 1464 1464 1463 1462 1461 1460 1460 1459 1459 1458 1458 1457 1458 1459 1459 1458 1459 1458 1457 1456 1454 1452 1452 1452 1452 1452 1451 1450 1449 1448 1448 1448 1447 1447 1448 1447 1447 1446 1446 1445 1444 1443 1442 1442 1442 1442 1442 1442 1443 1444 1444 1445 1446 1448 1450 1451 1452
1494 1493 1491 1489 1487 1485 1483 1482 1480 1480 1479 1478 1477 1476 1475 1474 1473 1472 1471 1471 1470 1470 1469 1468 1467 1467 1466 1464 1463 1462 1461 1460 1459 1458 1457 1457 1456 1455 1454 1454 1454 1455 1454 1454 1455 1453 1452 1451 1450 1449 1448 1448 1447 1447 1446 1445 1444 1443 1444 1444 1442 1441 1442 1443 1443 1442 1442 1441 1441 1441 1441 1441 1441 1440 1440 1441 1442 1444 1445 1445 1447 1448 1449 1450 1450
1495 1494 1492 1490 1488 1487 1486 1484 1482 1481 1480 1479 1478 1477 1475 1475 1473 1473 1472 1472 1471 1470 1470 1469 1468 1467 1466 1465 1464 1462 1461 1460 1459 1458 1457 1455 1454 1452 1452 1451 1450 1450 1450 1450 1450 1448 1447 1447 1447 1446 1445 1444 1443 1443 1442 1440 1440 1440 1440 1440 1439 1438 1438 1440 1441 1440 1438 1439 1440 1441 1441 1441 1441 1440 1440 1441 1443 1445 1446 1446 1447 1448 1448 1449 1449
1497 1495 1493 1492 1490 1489 1488 1486 1485 1483 1482 1481 1480 1478 1477 1476 1476 1475 1474 1474 1473 1472 1471 1471 1470 1469 1468 1467 1465 1464 1463 1462 1461 1459 1458 1457 1455 1453 1452 1450 1449 1448 1447 1446 1446 1445 1444 1443 1443 1443 1442 1440 1439 1439 1439 1437 1437 1437 1438 1438 1436 1434 1437 1441 1442 1440 1438 1438 1439 1441 1442 1442 1442 1441 1441 1442 1444 1446 1447 1447 1447 1448 1448 1448 1448
1498 1496 1495 1493 1492 1491 1490 1488 1487 1485 1484 1483 1481 1480 1479 1478 1478 1478 1477 1476 1475 1475 1474 1473 1472 1471 1470 1469 1467 1466 1465 1464 1462 1460 1459 1458 1456 1455 1453 1451 1449 1448 1447 1447 1447 1446 1445 1444 1444 1442 1441 1440 1439 1439 1438 1437 1436 1438 1439 1438 1434 1433 1437 1442 1443 1441 1440 1439 1440 1441 1443 1443 1443 1442 1442 1444 1445 1446 1447 1447 1447 1447 1447 1447 1446
1499 1498 1497 1495 1494 1493 1491 1490 1489 1487 1486 1485 1484 1482 1481 1480 1479 1479 1479 1478 1477 1476 1476 1475 1474 1473 1472 1471 1470 1468 1466 1465 1463 1461 1460 1458 1457 1456 1454 1452 1451 1449 1448 1449 1449 1448 1448 1448 1446 1444 1443 1442 1442 1441 1440 1439 1439 1439 1440 1438 1436 1436 1440 1442 1442 1441 1441 1440 1441 1442 1443 1443 1443 1443 1443 1444 1445 1446 1446 1446 1446 1446 1446 1446 1445
1500 1499 1498 1497 1496 1495 1493 1492 1491 1490 1488 1487 1486 1485 1484 1482 1481 1480 1480 1479 1479 1478 1477 1477 1476 1475 1474 1473 1472 1470 1468 1466 1464 1463 1461 1460 1459 1458 1456 1454 1453 1451 1450 1450 1450 1450 1450 1450 1448 1447 1446 1445 1444 1442 1441 1441 1441 1441 1441 1440 1439 1440 1441 1441 1441 1442 1442 1441 1442 1442 1443 1443 1443 1443 1443 1443 1444 1444 1445 1445 1445 1445 1445 1445 1445
1502 1501 1500 1499 1498 1497 1495 1494 1493 1492 1491 1489 1488 1487 1486 1485 1483 1482 1481 1480 1480 1479 1479 1478 1477 1476 1475 1474 1474 1472 1470 1468 1466 1465 1463 1462 1461 1460 1459 1457 1455 1454 1453 1453 1453 1452 1452 1451 1450 1449 1448 1447 1446 1444 1444 1443 1443 1443 1442 1442 1441 1441 1441 1442 1442 1442 1442 1442 1442 1442 1442 1443 1443 1443 1443 1443 1443 1443 1444 1444 1444 1445 1445 1445 1445
1504 1503 1502 1501 1500 1499 1498 1496 1495 1494 1493 1492 1490 1489 1488 1487 1486 1484 1483 1482 1481 1480 1479 1478 1478 1477 1476 1475 1474 1473 1472 1470 1468 1467 1465 1464 1463 1462 1461 1459 1458 1457 1456 1455 1455 1455 1454 1453 1452 1451 1450 1449 1448 1447 1446 1445 1445 1444 1444 1443 1443 1443 1443 1443 1443 1443 1443 1443 1443 1443 1443 1443 1443 1443 1443 1443 1443 1443 1443 1443 1444 1444 1444 1445 1445
1506 1505 1504 1502 1501 1500 1499 1498 1497 1496 1495 1494 1493 1491 1490 1488 1487 1486 1485 1484 1482 1481 1480 1479 1478 1478 1477 1476 1475 1474 1472 1471 1469 1468 1467 1466 1465 1464 1462 1461 1460 1459 1458 1457 1457 1456 1456 1455 1454 1453 1452 1452 1451 1450 1449 1448 1447 1447 1446 1446 1445 1445 1445 1445 1445 1444 1444 1444 1443 1443 1443 1443 1443 1443 1443 1443 1442 1442 1442 1443 1443 1444 1444 1445 1445
1507 1506 1505 1504 1502 1501 1501 1500 1498 1497 1496 1495 1494 1493 1491 1490 1488 1488 1487 1485 1484 1483 1482 1481 1480 1479 1478 1477 1476 1474 1473 1472 1470 1469 1468 1467 1466 1465 1463 1463 1461 1460 1460 1459 1458 1458 1457 1456 1456 1455 1454 1453 1452 1452 1451 1450 1449 1449 1448 1447 1447 1446 1446 1446 1445 1445 1445 1444 1444 1444 1444 1444 1444 1444 1443 1443 1442 1442 1442 1442 1443 1443 1444 1444 1445
1508 1507 1506 1505 1503 1502 1502 1500 1499 1498 1497 1496 1495 1494 1493 1491 1490 1488 1487 1486 1485 1484 1483 1482 1481 1480 1479 1478 1477 1475 1474 1473 1472 1471 1469 1468 1467 1466 1465 1464 1463 1462 1461 1460 1459 1459 1459 1458 1457 1456 1455 1455 1454 1453 1452 1452 1451 1450 1449 1448 1447 1447 1447 1446 1446 1446 1445 1445 1445 1445 1445 1445 1445 1444 1444 1443 1443 1443 1443 1443 1443 1443 1444 1444 1444
1508 1507 1507 1505 1504 1503 1502 1501 1500 1499 1497 1497 1496 1494 1493 1492 1491 1489 1488 1487 1486 1485 1484 1483 1482 1481 1480 1479 1478 1477 1476 1474 1473 1472 1471 1470 1468 1467 1466 1465 1464 1463 1462 1461 1461 1461 1460 1459 1458 1458 1457 1456 1455 1454 1453 1452 1452 1451 1450 1449 1449 1448 1447 1447 1446 1446 1446 1446 1446 1446 1446 1446 1445 1445 1444 1444 1444 1444 1444 1443 1443 1443 1443 1443 1443
1508 1507 1506 1505 1505 1504 1502 1501 1500 1499 1498 1497 1496 1495 1494 1493 1492 1490 1489 1488 1486 1485 1484 1483 1482 1481 1480 1479 1478 1477 1476 1475 1474 1473 1472 1471 1470 1468 1467 1466 1465 1464 1463 1463 1463 1462 1461 1460 1460 1459 1458 1458 1457 1456 1455 1454 1453 1453 1451 1451 1450 1449 1448 1447 1446 1446 1446 1446 1447 1447 1446 1446 1446 1445 1445 1445 1445 1444 1444 1444 1444 1443 1443 1443 1443
1508 1507 1505 1505 1504 1503 1502 1501 1500 1499 1498 1497 1496 1495 1494 1493 1492 1491 1490 1488 1487 1486 1485 1484 1483 1482 1481 1480 1479 1477 1476 1475 1475 1473 1472 1472 1471 1469 1467 1466 1466 1465 1465 1465 1464 1463 1462 1461 1460 1460 1459 1458 1458 1457 1456 1455 1455 1454 1453 1452 1451 1450 1449 1448 1448 1448 1447 1447 1447 1447 1447 1446 1446 1446 1446 1446 1445 1445 1444 1444 1444 1443 1443 1443 1442
1507 1507 1506 1504 1504 1503 1502 1501 1500 1499 1498 1496 1495 1494 1493 1492 1492 1491 1489 1488 1488 1486 1485 1485 1483 1482 1481 1480 1479 1478 1477 1476 1475 1474 1473 1472 1471 1469 1468 1467 1466 1466 1466 1465 1464 1463 1462 1462 1461 1460 1459 1458 1458 1457 1456 1456 1455 1455 1454 1453 1452 1451 1451 1450 1449 1449 1448 1448 1448 1447 1447 1447 1447 1446 1446 1446 1445 1445 1445 1444 1444 1443 1443 1442 1442
1506 1506 1505 1504 1502 1501 1501 1500 1499 1497 1496 1495 1494 1494 1493 1492 1491 1490 1489 1488 1487 1486 1485 1484 1483 1482 1481 1480 1479 1478 1477 1476 1475 1474 1473 1472 1471 1470 1469 1468 1467 1466 1466 1465 1464 1464 1462 1462 1461 1460 1459 1458 1458 1457 1456 1456 1455 1454 1454 1453 1452 1452 1451 1451 1450 1450 1449 1449 1448 1448 1448 1447 1447 1447 1446 1446 1445 1445 1444 1444 1444 1443 1442 1442 1441
1505 1504 1503 1501 1500 1499 1499 1498 1497 1496 1495 1494 1493 1493 1492 1491 1490 1489 1488 1487 1486 1486 1485 1484 1483 1482 1481 1480 1479 1478 1477 1476 1475 1474 1473 1472 1471 1470 1470 1469 1468 1467 1466 1465 1465 1464 1462 1461 1461 1460 1459 1458 1458 1457 1456 1455 1454 1454 1453 1453 1452 1451 1451 1450 1450 1449 1449 1449 1448 1448 1447 1447 1446 1446 1446 1446 1445 1445 1444 1444 1443 1443 1442 1441 1441
1504 1502 1500 1499 1497 1496 1496 1495 1495 1494 1493 1493 1492 1491 1490 1490 1489 1488 1487 1486 1485 1485 1484 1483 1482 1482 1481 1480 1479 1478 1477 1476 1475 1474 1473 1472 1471 1471 1470 1469 1468 1467 1466 1465 1464 1463 1462 1461 1460 1460 1459 1458 1457 1456 1455 1455 1454 1453 1452 1452 1451 1450 1450 1450 1449 1449 1448 1448 1447 1447 1446 1446 1446 1445 1445 1445 1445 1444 1443 1443 1443 1442 1442 1441 1440
1502 1501 1499 1497 1495 1494 1493 1492 1492 1492 1491 1491 1490 1489 1489 1488 1487 1487 1486 1485 1485 1484 1483 1482 1481 1480 1479 1478 1478 1477 1477 1476 1475 1474 1473 1472 1471 1470 1469 1468 1467 1467 1466 1465 1464 1463 1462 1461 1460 1459 1458 1457 1456 1455 1454 1454 1453 1452 1451 1451 1450 1449 1449 1448 1448 1447 1447 1447 1446 1446 1445 1445 1445 1445 1444 1444 1444 1443 1443 1443 1442 1442 1441 1440 1440
1500 1499 1497 1495 1493 1492 1491 1491 1490 1490 1489 1489 1488 1488 1487 1487 1486 1486 1485 1484 1484 1483 1482 1481 1480 1479 1477 1477 1476 1476 1475 1475 1474 1473 1472 1471 1470 1469 1468 1467 1466 1465 1465 1464 1463 1462 1461 1460 1459 1458 1457 1456 1455 1454 1453 1452 1452 1451 1450 1449 1448 1448 1447 1447 1446 1446 1446 1445 1445 1444 1444 1444 1444 1443 1443 1443 1443 1442 1442 1441 1441 1440 1440 1439 1439
1498 1497 1496 1494 1492 1491 1491 1490 1489 1488 1488 1487 1487 1486 1486 1486 1485 1485 1484 1483 1483 1482 1481 1480 1479 1477 1476 1475 1475 1474 1474 1473 1473 1471 1470 1470 1469 1468 1467 1466 1465 1464 1463 1462 1461 1460 1459 1459 1458 1457 1456 1455 1454 1453 1452 1451 1451 1450 1449 1448 1447 1446 1445 1445 1444 1444 1444 1444 1443 1443 1442 1442 1442 1441 1441 1441 1440 1440 1440 1439 1438 1438 1437 1437 1436
1495 1495 1494 1492 1491 1490 1489 1489 1488 1487 1487 1486 1485 1485 1485 1484 1484 1483 1483 1482 1481 1481 1480 1479 1478 1477 1475 1473 1473 1472 1472 1472 1471 1470 1469 1468 1467 1466 1465 1464 1463 1462 1461 1461 1460 1458 1457 1456 1456 1455 1454 1453 1452 1451 1450 1449 1448 1447 1447 1446 1445 1444 1443 1443 1442 1442 1441 1441 1441 1440 1440 1439 1439 1438 1438 1438 1437 1437 1437 1436 1436 1435 1434 1434 1434
1493 1492 1491 1490 1490 1489 1488 1487 1487 1486 1485 1484 1484 1483 1483 1483 1483 1482 1481 1481 1480 1479 1478 1478 1477 1476 1475 1473 1472 1471 1471 1470 1469 1468 1467 1466 1465 1464 1464 1463 1461 1460 1459 1458 1457 1456 1455 1454 1453 1452 1451 1451 1450 1448 1447 1447 1446 1445 1444 1443 1442 1442 1441 1440 1440 1439 1438 1438 1437 1437 1437 1436 1435 1435 1434 1434 1434 1433 1433 1433 1432 1431 1431 1431 1430
1490 1490 1489 1488 1488 1487 1486 1486 1485 1485 1483 1483 1482 1482 1482 1481 1481 1480 1480 1479 1478 1477 1477 1476 1475 1474 1473 1472 1471 1470 1469 1468 1467 1466 1465 1465 1464 1463 1462 1461 1459 1458 1457 1456 1455 1454 1452 1452 1451 1450 1449 1448 1447 1446 1445 1444 1443 1442 1441 1441 1440 1439 1438 1437 1437 1436 1435 1435 1434 1434 1433 1433 1432 1431 1431 1430 1430 1429 1429 1429 1428 1428 1427 1427 1426
1487 1487 1486 1486 1486 1485 1485 1484 1484 1483 1483 1482 1482 1481 1480 1480 1479 1479 1478 1477 1476 1475 1475 1474 1473 1472 1471 1470 1469 1469 1467 1466 1466 1465 1464 1463 1462 1461 1460 1459 1457 1456 1456 1455 1453 1452 1451 1450 1449 1448 1447 1446 1445 1444 1443 1442 1441 1440 1439 1438 1437 1436 1435 1434 1434 1433 1433 1432 1431 1431 1430 1430 1429 1428 1427 1426 1426 1425 1424 1424 1424 1424 1423 1423 1422
1484 1483 1483 1483 1483 1483 1483 1482 1482 1481 1481 1481 1480 1480 1479 1479 1478 1477 1476 1475 1474 1473 1473 1472 1471 1471 1470 1469 1468 1467 1466 1465 1464 1463 1462 1461 1460 1459 1458 1457 1455 1455 1454 1453 1451 1450 1449 1448 1446 1445 1444 1443 1442 1441 1441 1440 1439 1438 1436 1435 1434 1433 1433 1432 1431 1431 1430 1429 1429 1428 1428 1427 1426 1425 1424 1423 1423 1422 1421 1420 1420 1420 1420 1420 1419
1480 1480 1480 1480 1480 1480 1480 1480 1479 1479 1479 1479 1479 1479 1478 1478 1477 1476 1475 1474 1473 1472 1471 1471 1470 1469 1468 1467 1466 1465 1464 1464 1463 1462 1461 1460 1459 1458 1457 1455 1454 1453 1452 1450 1449 1448 1446 1445 1444 1443 1442 1441 1440 1439 1438 1437 1436 1435 1434 1432 1432 1431 1430 1429 1429 1428 1427 1427 1426 1426 1425 1424 1423 1423 1422 1420 1419 1419 1418 1417 1416 1416 1416 1416 1416
1476 1476 1476 1477 1477 1477 1477 1477 1477 1477 1477 1477 1477 1476 1476 1476 1476 1475 1474 1472 1471 1470 1470 1469 1468 1467 1466 1465 1464 1464 1463 1462 1461 1460 1460 1459 1457 1456 1455 1454 1452 1451 1450 1448 1447 1445 1444 1442 1441 1440 1439 1438 1437 1436 1435 1434 1433 1432 1431 1430 1429 1428 1428 1427 1426 1426 1425 1424 1424 1424 1423 1422 1421 1420 1419 1417 1416 1416 1415 1414 1413 1412 1412 1412 1412
1473 1473 1473 1473 1473 1474 1474 1475 1475 1475 1475 1474 1474 1474 1474 1474 1474 1473 1472 1471 1470 1469 1468 1467 1466 1465 1464 1463 1462 1462 1461 1460 1460 1459 1458 1457 1456 1455 1453 1452 1450 1449 1448 1446 1445 1443 1441 1440 1438 1437 1436 1435 1434 1434 1432 1431 1429 1428 1428 1427 1426 1426 1425 1424 1424 1423 1422 1422 1422 1421 1420 1419 1418 1417 1416 1414 1414 1413 1412 1411 1410 1409 1409 1409 1409
1469 1469 1469 1470 1470 1471 1471 1472 1472 1472 1472 1472 1472 1472 1471 1471 1471 1471 1470 1469 1468 1467 1466 1465 1464 1463 1462 1461 1460 1459 1459 1458 1457 1456 1455 1454 1453 1452 1451 1449 1448 1447 1445 1444 1443 1441 1439 1438 1436 1435 1434 1432 1432 1431 1429 1427 1426 1425 1425 1424 1423 1423 1422 1421 1421 1420 1420 1420 1420 1419 1418 1417 1416 1415 1413 1412 1411 1411 1410 1408 1407 1407 1406 1406 1406